Hourly Data Report for March 05, 2019

MAYO A
YUKON TERRITORY
Current Station Operator: NAVCAN

63°36'59.000" N
135°52'06.000" W
503.80 m
2100701
71965
YMA

Download Data

Hourly Data (March 2019)
Hourly Data Report for March 5, 2019
TIME
LST
Temp Definition
°C
Dew Point Definition
°C
Rel Hum Definition
%
Precip. Amount Definition
mm

Wind Dir Definition
10's deg

Wind Spd Definition
km/h
Visibility Definition
km
Stn Press Definition
kPa
Hmdx Definition


Wind Chill Definition


Weather Definition


00:00 -26.4 -29.1 79   11 3 32.2 97.30   -29 LegendNANA
01:00 -27.6 -30.6 76   7 5 32.2 97.30   -33 Clear
02:00 -26.9 -29.5 79   2 6 32.2 97.29   -33 LegendNANA
03:00 -28.5 -31.6 75   36 3 32.2 97.26   -32 LegendNANA
04:00 -29.3 -32.4 75   8 3 32.2 97.23   -33 Clear
05:00 -29.7 -32.8 75   36 3 32.2 97.19   -33 LegendNANA
06:00 -30.9 -34.2 73   36 3 32.2 97.16   -34 LegendNANA
07:00 -31.8 -35.2 73   0 1 32.2 97.15   -33 Clear
08:00 -32.4 -35.9 72   36 1 32.2 97.13   -34 LegendNANA
09:00 -31.5 -34.8 73   9 3 32.2 97.08   -35 LegendNANA
10:00 -28.3 -31.6 74   10 4 32.2 97.08   -33 Clear
11:00 -20.9 -24.4 74   10 4 32.2 97.01   -24 LegendNANA
12:00 -18.2 -24.1 61   7 5 32.2 96.94   -22 LegendNANA
13:00 -15.0 -22.2 55   6 3 32.2 96.84   -17 Clear
14:00 -13.2 -21.9 49   9 3 32.2 96.75   -15 LegendNANA
15:00 -11.6 -21.3 45   11 9 32.2 96.64   -17 LegendNANA
16:00 -10.4 -20.9 43     0 32.2 96.55     Clear
17:00 -9.6 -20.4 42   10 7 32.2 96.51   -14 LegendNANA
18:00 -12.9 -19.2 60   7 3 32.2 96.42   -15 LegendNANA
19:00 -17.0 -21.0 71   4 3 32.2 96.37   -19 Clear
20:00 -17.1 -21.7 68   36 9 32.2 96.33   -23 LegendNANA
21:00 -14.6 -20.8 60   36 12 32.2 96.32   -21 LegendNANA
22:00 -19.3 -22.8 74   36 7 32.2 96.28   -25 Clear
23:00 -19.2 -23.1 72   2 9 32.2 96.26   -26 LegendNANA

Notes on Data Quality.

Legend

  • E = Estimated
  • M = Missing
  • NA = Not Available*
  • [empty] = Indicates an unobserved value
Date modified: